EW1275 Weather Reports


Display with metric or nautical units.
time (UTC)temp
F
wind
direction
speed
MPH
gust
MPH
rain 1hr
in
rain 24hr
in
rain mn
in
humidity
%
barometer
mb
20200716003332 72 360 4.0 7.0 0.00 0.00 0.00 77 1012.7
20200716002837 72 355 4.0 9.0 0.00 0.00 0.00 77 1012.8
20200716002342 72 282 5.0 9.0 0.00 0.00 0.00 77 1012.7
20200716001831 72 5 4.0 9.0 0.00 0.00 0.00 77 1012.7
20200716001339 72 348 5.0 8.0 0.00 0.00 0.00 77 1012.7
20200716000841 72 5 5.0 8.0 0.00 0.00 0.00 77 1012.6
20200716000326 72 338 4.0 7.0 0.00 0.00 0.00 77 1012.7
20200715235834 73 5 4.0 6.0 0.00 0.00 0.00 77 1012.7
20200715235342 73 323 4.0 6.0 0.00 0.00 0.00 76 1012.7
20200715234825 73 5 4.0 6.0 0.00 0.00 0.00 76 1012.8
20200715234335 73 17 4.0 6.0 0.00 0.00 0.00 76 1012.9
20200715233842 73 30 4.0 6.0 0.00 0.00 0.00 75 1012.9
20200715233327 73 350 4.0 8.0 0.00 0.00 0.00 76 1012.9
20200715232839 73 42 3.0 8.0 0.00 0.00 0.00 75 1012.9
20200715232324 73 360 4.0 8.0 0.00 0.00 0.00 75 1013.1
20200715231833 74 20 4.0 8.0 0.00 0.00 0.00 75 1013.0
20200715231342 74 344 4.0 7.0 0.00 0.00 0.00 75 1013.0
20200715230828 74 318 5.0 7.0 0.00 0.00 0.00 75 1013.0
20200715230336 74 261 4.0 7.0 0.00 0.00 0.00 75 1013.0
20200715225826 74 335 5.0 7.0 0.00 0.00 0.00 74 1013.0
20200715225333 74 5 4.0 7.0 0.00 0.00 0.00 75 1013.1
20200715224838 74 34 4.0 7.0 0.00 0.00 0.00 75 1013.0
20200715224326 74 355 4.0 7.0 0.00 0.00 0.00 74 1013.0
20200715223835 74 35 4.0 8.0 0.00 0.00 0.00 74 1013.0
20200715223342 74 300 4.0 8.0 0.00 0.00 0.00 73 1013.0
20200715222826 75 32 4.0 8.0 0.00 0.00 0.00 73 1013.1
20200715222334 74 116 4.0 8.0 0.00 0.00 0.00 73 1013.1
20200715221839 74 61 4.0 7.0 0.00 0.00 0.00 73 1013.1
20200715221323 75 13 4.0 7.0 0.00 0.00 0.00 73 1013.1
20200715220830 75 71 4.0 7.0 0.00 0.00 0.00 73 1013.1
20200715220335 75 355 4.0 6.0 0.00 0.00 0.00 72 1013.2
20200715215840 75 5 4.0 8.0 0.00 0.00 0.00 72 1013.2
20200715215328 75 355 4.0 8.0 0.00 0.00 0.00 72 1013.2
20200715214833 75 347 4.0 8.0 0.00 0.00 0.00 72 1013.2
20200715214338 75 286 3.0 7.0 0.00 0.00 0.00 73 1013.2
20200715213826 75 355 5.0 7.0 0.00 0.00 0.00 72 1013.2
20200715213337 75 350 4.0 9.0 0.00 0.00 0.00 72 1013.2
20200715212824 75 339 5.0 8.0 0.00 0.00 0.00 72 1013.3
20200715212332 75 26 5.0 7.0 0.00 0.00 0.00 72 1013.3
20200715211821 75 344 4.0 7.0 0.00 0.00 0.00 72 1013.3
20200715211330 75 345 4.0 8.0 0.00 0.00 0.00 72 1013.2
20200715210837 75 5 5.0 8.0 0.00 0.00 0.00 72 1013.2
20200715210327 75 349 4.0 7.0 0.00 0.00 0.00 71 1013.4
20200715205834 75 312 4.0 7.0 0.00 0.00 0.00 71 1013.4
20200715205338 75 338 5.0 7.0 0.00 0.00 0.00 72 1013.4
20200715204827 75 35 4.0 7.0 0.00 0.00 0.00 72 1013.4
20200715204335 75 338 4.0 7.0 0.00 0.00 0.00 72 1013.5
20200715203820 75 349 5.0 7.0 0.00 0.00 0.00 72 1013.5
20200715203328 75 355 4.0 7.0 0.00 0.00 0.00 72 1013.5
20200715202836 76 355 4.0 7.0 0.00 0.00 0.00 71 1013.5
20200715202324 76 15 4.0 8.0 0.00 0.00 0.00 72 1013.6
20200715201840 76 355 5.0 8.0 0.00 0.00 0.00 72 1013.5
20200715201328 76 27 5.0 7.0 0.00 0.00 0.00 71 1013.6
20200715200836 75 331 5.0 7.0 0.00 0.00 0.00 71 1013.6
20200715200320 76 338 4.0 7.0 0.00 0.00 0.00 71 1013.7
20200715195828 75 348 4.0 8.0 0.00 0.00 0.00 71 1013.7
20200715195335 76 324 4.0 8.0 0.00 0.00 0.00 72 1013.7
20200715194820 75 342 6.0 7.0 0.00 0.00 0.00 72 1013.7
20200715194328 75 333 5.0 7.0 0.00 0.00 0.00 71 1013.8
20200715193836 75 5 4.0 8.0 0.00 0.00 0.00 71 1013.8
20200715193327 75 9 5.0 8.0 0.00 0.00 0.00 72 1013.8
20200715192829 75 17 4.0 8.0 0.00 0.00 0.00 71 1013.8
20200715192337 75 326 5.0 7.0 0.00 0.00 0.00 71 1013.8
20200715191826 75 349 6.0 7.0 0.00 0.00 0.00 71 1013.8
20200715191333 75 336 5.0 7.0 0.00 0.00 0.00 71 1013.8
20200715190841 75 248 5.0 7.0 0.00 0.00 0.00 72 1013.9
20200715190326 75 350 4.0 7.0 0.00 0.00 0.00 71 1013.8
20200715185834 75 347 4.0 8.0 0.00 0.00 0.00 71 1013.8
20200715185340 75 340 4.0 8.0 0.00 0.00 0.00 72 1014.0
20200715184827 75 355 4.0 7.0 0.00 0.00 0.00 72 1013.9
20200715184319 75 12 4.0 7.0 0.00 0.00 0.00 72 1014.0
20200715183827 75 341 4.0 7.0 0.00 0.00 0.00 72 1014.0
20200715183332 75 351 4.0 7.0 0.00 0.00 0.00 71 1014.0
20200715182820 75 325 3.0 6.0 0.00 0.00 0.00 72 1014.0
20200715182328 75 348 4.0 6.0 0.00 0.00 0.00 73 1014.0
20200715181833 75 337 3.0 6.0 0.00 0.00 0.00 72 1014.0
20200715181338 75 332 3.0 6.0 0.00 0.00 0.00 73 1014.0
20200715180823 75 323 4.0 6.0 0.00 0.00 0.00 73 1014.0
20200715180329 75 23 3.0 5.0 0.00 0.00 0.00 73 1013.9
20200715175833 74 5 3.0 6.0 0.00 0.00 0.00 73 1014.0
20200715175322 74 318 4.0 6.0 0.00 0.00 0.00 73 1014.0
20200715174830 74 355 4.0 6.0 0.00 0.00 0.00 74 1014.0
20200715174338 74 334 4.0 6.0 0.00 0.00 0.00 74 1014.0
20200715173826 74 329 2.0 6.0 0.00 0.00 0.00 74 1014.0
20200715173330 73 324 4.0 6.0 0.00 0.00 0.00 75 1013.9
20200715172839 73 360 4.0 6.0 0.00 0.00 0.00 75 1013.8
20200715172323 73 338 2.0 4.0 0.00 0.00 0.00 75 1013.8
20200715171831 73 317 3.0 5.0 0.00 0.00 0.00 75 1013.8
20200715171339 73 326 2.0 5.0 0.00 0.00 0.00 76 1013.8
20200715170831 72 328 3.0 4.0 0.00 0.00 0.00 78 1013.8
20200715170340 71 333 2.0 5.0 0.00 0.00 0.00 77 1013.9
20200715165823 71 337 3.0 5.0 0.00 0.00 0.00 77 1013.9
20200715165331 72 336 2.0 5.0 0.00 0.00 0.00 76 1013.9
20200715164822 71 331 2.0 5.0 0.00 0.00 0.00 77 1013.8
20200715164330 71 329 3.0 5.0 0.00 0.00 0.00 77 1013.8
20200715163838 71 12 3.0 5.0 0.00 0.00 0.00 77 1013.8
20200715163322 71 328 2.0 3.0 0.00 0.00 0.00 78 1013.8
20200715162830 70 318 1.0 3.0 0.00 0.00 0.00 79 1013.8
20200715162334 69 325 1.0 5.0 0.00 0.00 0.00 80 1013.9
20200715161823 69 318 2.0 7.0 0.00 0.00 0.00 81 1013.8
20200715161331 68 279 3.0 8.0 0.00 0.00 0.00 81 1013.7
20200715160839 68 265 5.0 8.0 0.00 0.00 0.00 81 1013.8
20200715160324 68 320 1.0 3.0 0.00 0.00 0.00 82 1013.9
20200715155826 68 241 1.0 5.0 0.00 0.00 0.00 82 1013.9
20200715155334 68 252 1.0 3.0 0.00 0.00 0.00 83 1013.9
20200715154819 68 283 2.0 5.0 0.00 0.00 0.00 83 1013.9
20200715154327 68 319 2.0 6.0 0.00 0.00 0.00 84 1013.9
20200715153835 68 337 2.0 6.0 0.00 0.00 0.00 84 1013.9
20200715153326 68 327 2.0 5.0 0.00 0.00 0.00 84 1013.9
20200715152833 67 329 1.0 5.0 0.00 0.00 0.00 84 1014.0
20200715152340 67 283 1.0 4.0 0.00 0.00 0.00 84 1014.0
20200715151825 67 331 2.0 4.0 0.00 0.00 0.00 84 1014.1
20200715151333 67 311 1.0 3.0 0.00 0.00 0.00 85 1014.0
20200715150841 67 311 1.0 3.0 0.00 0.00 0.00 85 1014.1
20200715150326 67 331 2.0 3.0 0.00 0.00 0.00 85 1014.0
20200715145834 67 333 2.0 4.0 0.00 0.00 0.00 85 1014.0
20200715145342 67 340 1.0 4.0 0.00 0.00 0.00 86 1013.9
20200715144827 67 336 1.0 4.0 0.00 0.00 0.00 86 1013.8
20200715144338 67 322 1.0 3.0 0.00 0.00 0.00 86 1013.8
20200715143825 67 309 1.0 4.0 0.00 0.00 0.00 86 1013.7
20200715143331 67 311 2.0 4.0 0.00 0.00 0.00 86 1013.7
20200715142839 67 321 1.0 5.0 0.00 0.00 0.00 86 1013.6
20200715142327 67 324 3.0 5.0 0.00 0.00 0.00 86 1013.5
20200715141831 66 328 1.0 3.0 0.00 0.00 0.00 85 1013.5
20200715141337 66 328 1.0 3.0 0.00 0.00 0.00 86 1013.5
20200715140821 66 325 2.0 3.0 0.00 0.00 0.00 86 1013.4
20200715140328 66 312 1.0 3.0 0.00 0.00 0.00 85 1013.4
20200715135832 66 311 2.0 3.0 0.00 0.00 0.00 86 1013.3
20200715135321 66 315 1.0 4.0 0.00 0.00 0.00 86 1013.3
20200715134829 66 323 1.0 4.0 0.00 0.00 0.00 86 1013.3
20200715134336 66 320 2.0 5.0 0.00 0.00 0.00 86 1013.2
20200715133820 66 336 2.0 5.0 0.00 0.00 0.00 86 1013.1
20200715133328 66 331 3.0 4.0 0.00 0.00 0.00 86 1013.1
20200715132836 66 340 2.0 5.0 0.00 0.00 0.00 86 1013.1
20200715132322 66 311 2.0 6.0 0.00 0.00 0.00 87 1013.0
20200715131830 66 290 3.0 6.0 0.00 0.00 0.00 87 1012.9
20200715131338 66 29 2.0 5.0 0.00 0.00 0.00 87 1012.9
20200715130830 66 338 3.0 5.0 0.00 0.00 0.00 87 1012.9
20200715130334 66 325 3.0 4.0 0.00 0.00 0.00 87 1012.9
20200715125822 66 320 2.0 5.0 0.00 0.00 0.00 87 1013.0
20200715125333 66 336 3.0 5.0 0.00 0.00 0.00 87 1013.0
20200715124821 66 337 3.0 6.0 0.00 0.00 0.00 87 1013.0
20200715124329 66 338 4.0 6.0 0.00 0.00 0.00 87 1013.0
20200715123834 67 340 2.0 5.0 0.00 0.00 0.00 87 1013.0
20200715123321 66 348 2.0 5.0 0.00 0.00 0.00 87 1013.0
20200715122829 67 348 4.0 5.0 0.00 0.00 0.00 87 1013.0
20200715122334 67 344 3.0 6.0 0.00 0.00 0.00 87 1012.9
20200715121826 67 338 3.0 5.0 0.00 0.00 0.00 87 1012.9
20200715121333 67 350 2.0 4.0 0.00 0.00 0.00 87 1012.9
20200715120838 66 146 0.0 2.0 0.00 0.00 0.00 87 1012.9
20200715120322 66 157 0.0 4.0 0.00 0.00 0.00 87 1012.8
20200715115830 66 157 2.0 4.0 0.00 0.00 0.00 86 1012.9
20200715115340 66 158 2.0 4.0 0.00 0.00 0.00 86 1012.9
20200715114823 66 159 1.0 5.0 0.00 0.00 0.00 86 1012.8
20200715114328 66 159 2.0 5.0 0.00 0.00 0.00 86 1012.8
20200715113836 66 158 3.0 4.0 0.00 0.00 0.00 86 1012.8
20200715113327 66 153 3.0 4.0 0.00 0.00 0.00 86 1012.8
20200715112836 66 156 3.0 4.0 0.00 0.00 0.00 86 1012.7
20200715112320 66 157 3.0 5.0 0.00 0.00 0.00 86 1012.7
20200715111828 66 155 3.0 5.0 0.00 0.00 0.00 86 1012.7
20200715111336 66 163 3.0 5.0 0.00 0.00 0.00 86 1012.6
20200715110821 66 165 2.0 4.0 0.00 0.00 0.00 86 1012.6
20200715110328 66 169 2.0 4.0 0.00 0.00 0.00 86 1012.6
20200715105833 66 158 1.0 3.0 0.00 0.00 0.00 87 1012.6
20200715105339 66 157 0.0 1.0 0.00 0.00 0.00 87 1012.6
20200715104823 66 157 0.0 2.0 0.00 0.00 0.00 87 1012.6
20200715104332 66 157 0.0 2.0 0.00 0.00 0.00 87 1012.6
20200715103837 66 157 0.0 3.0 0.00 0.00 0.00 87 1012.5
20200715103325 66 156 1.0 4.0 0.00 0.00 0.00 87 1012.6
20200715102833 66 168 1.0 4.0 0.00 0.00 0.00 86 1012.7
20200715102340 66 166 3.0 4.0 0.00 0.00 0.00 86 1012.6
20200715101825 66 180 2.0 3.0 0.00 0.00 0.00 86 1012.6
20200715101330 66 184 1.0 3.0 0.00 0.00 0.00 86 1012.7
20200715100835 66 234 2.0 3.0 0.00 0.00 0.00 86 1012.6
20200715100337 67 279 0.0 2.0 0.00 0.00 0.00 86 1012.7
20200715095822 66 279 0.0 4.0 0.00 0.00 0.00 86 1012.7
20200715095334 66 279 2.0 4.0 0.00 0.00 0.00 86 1012.6
20200715094821 67 250 1.0 3.0 0.00 0.00 0.00 86 1012.6
20200715094329 67 251 1.0 4.0 0.00 0.00 0.00 86 1012.6
20200715093842 67 269 0.0 5.0 0.00 0.00 0.00 86 1012.6
20200715093326 67 259 2.0 5.0 0.00 0.00 0.00 85 1012.7
20200715092831 67 266 0.0 1.0 0.00 0.00 0.00 86 1012.9
20200715092335 67 266 0.0 4.0 0.00 0.00 0.00 86 1012.9
20200715091823 67 266 2.0 4.0 0.00 0.00 0.00 85 1012.9
20200715091329 67 237 0.0 6.0 0.00 0.00 0.00 86 1013.0
20200715090820 67 207 3.0 6.0 0.00 0.00 0.00 86 1012.9
20200715090328 67 268 1.0 3.0 0.00 0.00 0.00 86 1013.0
20200715085836 67 243 1.0 6.0 0.00 0.00 0.00 86 1013.0
20200715085320 67 244 3.0 6.0 0.00 0.00 0.00 86 1013.1
20200715084829 67 232 2.0 7.0 0.00 0.00 0.00 86 1013.1
20200715084338 67 245 3.0 7.0 0.00 0.00 0.00 86 1013.2
20200715083842 67 256 3.0 6.0 0.00 0.00 0.00 86 1013.3
20200715083326 67 258 3.0 8.0 0.00 0.00 0.00 86 1013.3
20200715082832 67 304 3.0 8.0 0.00 0.00 0.00 86 1013.3
20200715082323 67 261 4.0 9.0 0.00 0.00 0.00 86 1013.4
20200715081835 67 279 4.0 9.0 0.00 0.00 0.00 86 1013.6
20200715081340 67 276 5.0 8.0 0.00 0.00 0.00 86 1013.6
20200715080823 67 253 4.0 7.0 0.00 0.00 0.00 86 1013.6
20200715080332 67 313 1.0 7.0 0.00 0.00 0.00 86 1013.7
20200715075840 67 270 2.0 6.0 0.00 0.00 0.00 86 1013.7
20200715075324 67 316 1.0 8.0 0.00 0.00 0.00 85 1013.7
20200715074832 67 259 4.0 8.0 0.00 0.00 0.00 85 1013.7
20200715074339 67 313 2.0 7.0 0.00 0.00 0.00 85 1013.7
20200715073825 67 286 3.0 7.0 0.00 0.00 0.00 85 1013.8
20200715073333 67 268 3.0 6.0 0.00 0.00 0.00 85 1013.9
20200715072821 67 277 0.0 5.0 0.00 0.00 0.00 85 1013.9
20200715072329 67 264 2.0 5.0 0.00 0.00 0.00 85 1013.9
20200715071837 67 326 2.0 5.0 0.00 0.00 0.00 85 1013.9
20200715071323 68 311 2.0 5.0 0.00 0.00 0.00 85 1013.9
20200715070831 68 291 1.0 4.0 0.00 0.00 0.00 85 1013.9
20200715070339 68 333 1.0 4.0 0.00 0.00 0.00 85 1013.9
20200715065823 68 321 1.0 5.0 0.00 0.00 0.00 85 1013.9
20200715065333 68 269 2.0 5.0 0.00 0.00 0.00 85 1014.0
20200715064824 68 334 0.0 5.0 0.00 0.00 0.00 85 1013.9
20200715064336 68 336 3.0 5.0 0.00 0.00 0.00 85 1013.9
20200715063822 68 333 1.0 4.0 0.00 0.00 0.00 85 1013.9
20200715063330 68 273 2.0 4.0 0.00 0.00 0.00 84 1013.9
20200715062837 68 276 1.0 4.0 0.00 0.00 0.00 85 1014.0
20200715062322 68 277 0.0 3.0 0.00 0.00 0.00 85 1014.0
20200715061830 68 277 1.0 4.0 0.00 0.00 0.00 85 1014.0
20200715061338 68 331 0.0 4.0 0.00 0.00 0.00 85 1014.0
20200715060823 68 319 2.0 4.0 0.00 0.00 0.00 85 1013.9
20200715060331 68 311 1.0 5.0 0.00 0.00 0.00 85 1013.9
20200715055822 68 349 2.0 5.0 0.00 0.00 0.00 85 1013.9
20200715055329 68 315 1.0 4.0 0.00 0.00 0.00 85 1014.0
20200715054836 68 338 1.0 6.0 0.00 0.00 0.00 85 1014.0
20200715054321 68 360 3.0 5.0 0.00 0.00 0.00 85 1014.0
20200715053829 68 331 1.0 4.0 0.00 0.00 0.00 85 1014.0
20200715053338 68 327 2.0 4.0 0.00 0.00 0.00 85 1014.0
20200715052822 68 333 2.0 4.0 0.00 0.00 0.00 85 1013.9
20200715052329 68 355 3.0 5.0 0.00 0.00 0.00 85 1013.8
20200715051837 68 318 1.0 5.0 0.00 0.00 0.00 85 1013.9
20200715051342 68 334 2.0 4.0 0.00 0.00 0.00 85 1013.9
20200715050830 68 340 2.0 4.0 0.00 0.00 0.00 85 1013.8
20200715050339 68 325 2.0 5.0 0.00 0.00 0.00 85 1013.9
20200715045823 68 343 2.0 5.0 0.00 0.00 0.00 85 1013.9
20200715045331 68 330 2.0 5.0 0.00 0.00 0.00 85 1013.8
20200715044839 68 342 3.0 6.0 0.00 0.00 0.00 85 1013.7
20200715044323 68 329 4.0 8.0 0.00 0.00 0.00 85 1013.7
20200715043831 68 338 4.0 8.0 0.00 0.00 0.00 85 1013.7
20200715043339 68 346 5.0 7.0 0.00 0.00 0.00 85 1013.7
20200715042824 69 340 4.0 7.0 0.00 0.00 0.00 85 1013.8
20200715042332 69 343 4.0 7.0 0.00 0.00 0.00 85 1013.6
20200715041824 68 330 4.0 5.0 0.00 0.00 0.00 85 1013.6
20200715041328 68 349 4.0 5.0 0.00 0.00 0.00 85 1013.5
20200715040838 69 325 3.0 6.0 0.00 0.00 0.00 85 1013.5
20200715040324 69 321 4.0 7.0 0.00 0.00 0.00 85 1013.6
20200715035829 69 336 5.0 7.0 0.00 0.00 0.00 85 1013.5
20200715035317 69 351 4.0 7.0 0.00 0.00 0.00 85 1013.4
20200715034830 69 327 3.0 7.0 0.00 0.00 0.00 85 1013.4
20200715034341 69 344 4.0 7.0 0.00 0.00 0.00 84 1013.4
20200715033827 69 328 4.0 6.0 0.00 0.00 0.00 84 1013.4
20200715033337 69 334 4.0 7.0 0.00 0.00 0.00 84 1013.5
20200715032822 69 344 5.0 7.0 0.00 0.00 0.00 84 1013.4
20200715032328 69 327 5.0 6.0 0.00 0.00 0.00 84 1013.5
20200715031836 69 314 4.0 6.0 0.00 0.00 0.00 84 1013.5
20200715031321 69 355 3.0 6.0 0.00 0.00 0.00 84 1013.5
20200715030829 69 343 4.0 6.0 0.00 0.00 0.00 84 1013.5
20200715030337 69 326 4.0 6.0 0.00 0.00 0.00 84 1013.5
20200715025821 69 320 4.0 7.0 0.00 0.00 0.00 84 1013.5
20200715025329 69 324 5.0 7.0 0.00 0.00 0.00 83 1013.4
20200715024819 70 11 4.0 7.0 0.00 0.00 0.00 83 1013.5
20200715024327 70 338 4.0 7.0 0.00 0.00 0.00 83 1013.4
20200715023832 70 336 4.0 7.0 0.00 0.00 0.00 83 1013.5
20200715023338 70 355 3.0 5.0 0.00 0.00 0.00 83 1013.5
20200715022822 70 340 4.0 7.0 0.00 0.00 0.00 83 1013.5
20200715022331 70 338 3.0 6.0 0.00 0.00 0.00 83 1013.4
20200715021838 70 333 3.0 7.0 0.00 0.00 0.00 83 1013.4
20200715021323 70 340 4.0 7.0 0.00 0.00 0.00 82 1013.4
20200715020831 70 320 4.0 6.0 0.00 0.00 0.00 82 1013.4
20200715020336 71 355 3.0 6.0 0.00 0.00 0.00 82 1013.3
20200715015823 71 5 3.0 6.0 0.00 0.00 0.00 82 1013.3
20200715015331 71 340 4.0 6.0 0.00 0.00 0.00 81 1013.3
20200715014839 71 344 3.0 6.0 0.00 0.00 0.00 81 1013.3
20200715014327 71 348 3.0 6.0 0.00 0.00 0.00 81 1013.2
20200715013833 71 319 3.0 6.0 0.00 0.00 0.00 81 1013.2
20200715013340 71 5 4.0 6.0 0.00 0.00 0.00 80 1013.2
20200715012826 72 338 3.0 6.0 0.00 0.00 0.00 80 1013.2
20200715012333 72 355 3.0 6.0 0.00 0.00 0.00 80 1013.2
20200715011818 72 348 3.0 6.0 0.00 0.00 0.00 80 1013.2
20200715011326 72 228 3.0 6.0 0.00 0.00 0.00 79 1013.3
20200715010838 72 10 3.0 6.0 0.00 0.00 0.00 79 1013.2
20200715010323 72 5 4.0 6.0 0.00 0.00 0.00 79 1013.2
20200715005831 72 343 3.0 5.0 0.00 0.00 0.00 79 1013.2
20200715005338 73 22 3.0 5.0 0.00 0.00 0.00 79 1013.2
20200715004823 73 345 4.0 5.0 0.00 0.00 0.00 79 1013.2
20200715004333 73 339 3.0 7.0 0.00 0.00 0.00 78 1013.3
20200715003839 73 355 3.0 7.0 0.00 0.00 0.00 78 1013.3